Location: Mohawk View
(42.7837°N, 73.7885°W)
Time: 13:28:36
(UTC+00:00)

Cosmos 1151 Rocket - Pass Details

Date: 17 June 2021
Orbit: 592 x 616 km, 82.5° (Epoch: 31 July)

Event Time Altitude Azimuth Distance (km) Brightness Sun altitude
Rises 08:39:33 0° 341° (NNW) 2,844 6.8 -6.2°
Reaches altitude 10° 08:41:57 10° 331° (NNW) 1,935 5.8 -5.9°
Maximum altitude 08:45:41 30° 270° (W) 1,065 3.9 -5.4°
Drops below altitude 10° 08:49:24 10° 208° (SSW) 1,918 5.0 -4.8°
Enters shadow 08:51:39 - 198° (SSW) 2,767 5.9 -4.5°
